Tracking 19638 objects as of 21-Apr-2019
HD Live streaming from Space Station
objects crossing your sky now

THORAD AGENA D DEB

Track THORAD AGENA D DEB now!
10-day predictions


NORAD ID: 4681
Int'l Code: 1970-025BE
Perigee: 1,054.8 km
Apogee: 1,425.6 km
Inclination: 99.8 °
Period: 110.1 minutes
Semi major axis: 7611 km
RCS: 0.0728 m2 (small)
Launch date: April 8, 1970
Source: United States (US)
Launch site: AIR FORCE WESTERN TEST RANGE (AFWTR)

Note: This is SATELLITE DEBRIS
aabbcc
Your satellite tracking list
Your tracking list is empty




NASA's NSSDC Master Catalog

Two Line Element Set (TLE):
1  4681U 70025BE  19110.63000383 +.00000221 +00000-0 +67766-3 0  9998
2  4681 099.8259 143.4198 0243640 284.3238 197.0596 13.07447109333385
Source of the keplerian elements: AFSPC